Time,TemperatureF,DewpointF,PressureIn,WindDirection,WindDirectionDegrees,WindSpeedMPH,WindSpeedGustMPH,Humidity,HourlyPrecipIn,Conditions,Clouds,dailyrainin,SoftwareType,DateUTC
2013-08-31 00:11:00,69.9,68.0,29.90,WSW,255,6.0,9.0,94,0.00,,,0.00,weatherlink.com 1.10,2013-08-31 04:11:00,
2013-08-31 00:26:00,70.3,69.0,29.89,West,262,9.0,12.0,95,0.00,,,0.00,weatherlink.com 1.10,2013-08-31 04:26:00,
2013-08-31 00:41:00,70.7,69.0,29.89,SW,234,8.0,13.0,95,0.00,,,0.00,weatherlink.com 1.10,2013-08-31 04:41:00,
2013-08-31 00:56:00,70.7,69.0,29.89,WSW,244,7.0,8.0,95,0.00,,,0.00,weatherlink.com 1.10,2013-08-31 04:56:00,
2013-08-31 01:11:00,70.8,69.0,29.89,WSW,250,8.0,10.0,95,0.00,,,0.00,weatherlink.com 1.10,2013-08-31 05:11:00,
2013-08-31 01:26:00,70.9,70.0,29.88,SW,236,6.0,13.0,95,0.00,,,0.00,weatherlink.com 1.10,2013-08-31 05:26:00,
2013-08-31 01:41:00,70.8,69.0,29.88,West,272,7.0,14.0,95,0.00,,,0.00,weatherlink.com 1.10,2013-08-31 05:41:00,
2013-08-31 01:56:00,70.9,70.0,29.88,WSW,248,8.0,16.0,95,0.00,,,0.00,weatherlink.com 1.10,2013-08-31 05:56:00,
2013-08-31 02:11:00,71.0,69.0,29.88,SW,217,13.0,17.0,94,0.00,,,0.00,weatherlink.com 1.10,2013-08-31 06:11:00,
2013-08-31 02:26:00,71.1,69.0,29.88,SSW,211,13.0,18.0,94,0.00,,,0.00,weatherlink.com 1.10,2013-08-31 06:26:00,
2013-08-31 02:41:00,71.2,69.0,29.88,WSW,252,10.0,18.0,94,0.00,,,0.00,weatherlink.com 1.10,2013-08-31 06:41:00,
2013-08-31 02:56:00,71.1,69.0,29.88,SW,219,18.0,18.0,94,0.00,,,0.00,weatherlink.com 1.10,2013-08-31 06:56:00,
2013-08-31 03:11:00,71.0,69.0,29.88,West,265,12.0,19.0,94,0.00,,,0.00,weatherlink.com 1.10,2013-08-31 07:11:00,
2013-08-31 03:27:00,70.9,69.0,29.87,SW,224,9.0,17.0,94,0.00,,,0.00,weatherlink.com 1.10,2013-08-31 07:27:00,
2013-08-31 03:42:00,70.7,69.0,29.87,SW,227,13.0,17.0,94,0.00,,,0.00,weatherlink.com 1.10,2013-08-31 07:42:00,
2013-08-31 03:57:00,70.6,69.0,29.87,WSW,240,13.0,17.0,94,0.00,,,0.00,weatherlink.com 1.10,2013-08-31 07:57:00,
2013-08-31 04:12:00,70.5,69.0,29.87,SW,220,10.0,16.0,94,0.00,,,0.00,weatherlink.com 1.10,2013-08-31 08:12:00,
2013-08-31 04:27:00,70.4,69.0,29.87,SW,217,10.0,16.0,94,0.00,,,0.00,weatherlink.com 1.10,2013-08-31 08:27:00,
2013-08-31 04:42:00,70.4,69.0,29.87,SW,221,13.0,16.0,95,0.00,,,0.00,weatherlink.com 1.10,2013-08-31 08:42:00,
2013-08-31 04:57:00,70.3,69.0,29.87,WSW,240,12.0,17.0,94,0.00,,,0.00,weatherlink.com 1.10,2013-08-31 08:57:00,
2013-08-31 05:12:00,70.3,69.0,29.88,SW,221,17.0,17.0,95,0.00,,,0.00,weatherlink.com 1.10,2013-08-31 09:12:00,
2013-08-31 05:27:00,70.4,69.0,29.87,WSW,244,13.0,18.0,95,0.00,,,0.00,weatherlink.com 1.10,2013-08-31 09:27:00,
2013-08-31 05:42:00,70.5,69.0,29.87,SW,236,10.0,16.0,95,0.00,,,0.00,weatherlink.com 1.10,2013-08-31 09:42:00,
2013-08-31 05:57:00,70.4,69.0,29.87,SW,234,9.0,15.0,95,0.00,,,0.00,weatherlink.com 1.10,2013-08-31 09:57:00,
2013-08-31 06:12:00,70.5,69.0,29.88,SW,225,12.0,16.0,95,0.00,,,0.00,weatherlink.com 1.10,2013-08-31 10:12:00,
2013-08-31 06:27:00,70.5,69.0,29.88,SW,232,10.0,13.0,94,0.00,,,0.00,weatherlink.com 1.10,2013-08-31 10:27:00,
2013-08-31 06:42:00,70.5,69.0,29.88,SW,221,6.0,12.0,94,0.00,,,0.00,weatherlink.com 1.10,2013-08-31 10:42:00,
2013-08-31 06:57:00,70.5,69.0,29.88,SW,220,12.0,17.0,94,0.00,,,0.00,weatherlink.com 1.10,2013-08-31 10:57:00,
2013-08-31 07:12:00,70.6,69.0,29.88,SW,223,9.0,14.0,94,0.00,,,0.00,weatherlink.com 1.10,2013-08-31 11:12:00,
2013-08-31 07:27:00,70.8,69.0,29.88,SSW,208,6.0,16.0,95,0.00,,,0.00,weatherlink.com 1.10,2013-08-31 11:27:00,
2013-08-31 07:42:00,70.8,69.0,29.88,SSW,199,10.0,14.0,94,0.00,,,0.00,weatherlink.com 1.10,2013-08-31 11:42:00,
2013-08-31 07:57:00,71.0,69.0,29.88,SW,229,9.0,15.0,94,0.00,,,0.00,weatherlink.com 1.10,2013-08-31 11:57:00,
2013-08-31 08:12:00,71.2,69.0,29.88,SW,228,9.0,15.0,94,0.00,,,0.00,weatherlink.com 1.10,2013-08-31 12:12:00,
2013-08-31 08:27:00,71.3,70.0,29.88,SW,215,11.0,13.0,94,0.00,,,0.00,weatherlink.com 1.10,2013-08-31 12:27:00,
2013-08-31 08:42:00,71.5,70.0,29.88,West,259,8.0,13.0,94,0.00,,,0.00,weatherlink.com 1.10,2013-08-31 12:42:00,
2013-08-31 08:57:00,71.6,70.0,29.89,WSW,242,10.0,15.0,93,0.00,,,0.00,weatherlink.com 1.10,2013-08-31 12:57:00,
2013-08-31 09:12:00,71.6,70.0,29.89,WSW,252,5.0,10.0,93,0.00,,,0.00,weatherlink.com 1.10,2013-08-31 13:12:00,
2013-08-31 09:27:00,71.8,70.0,29.90,SW,229,6.0,10.0,93,0.00,,,0.00,weatherlink.com 1.10,2013-08-31 13:27:00,
2013-08-31 09:42:00,72.3,70.0,29.89,SW,216,8.0,12.0,93,0.00,,,0.00,weatherlink.com 1.10,2013-08-31 13:42:00,
2013-08-31 09:57:00,73.1,71.0,29.89,SW,234,8.0,16.0,92,0.00,,,0.00,weatherlink.com 1.10,2013-08-31 13:57:00,
2013-08-31 10:12:00,73.1,70.0,29.89,WSW,246,8.0,15.0,91,0.00,,,0.00,weatherlink.com 1.10,2013-08-31 14:12:00,
2013-08-31 10:27:00,73.0,70.0,29.89,WSW,249,10.0,13.0,90,0.00,,,0.00,weatherlink.com 1.10,2013-08-31 14:27:00,
2013-08-31 10:42:00,72.6,70.0,29.89,SW,236,11.0,17.0,91,0.00,,,0.00,weatherlink.com 1.10,2013-08-31 14:42:00,
2013-08-31 10:57:00,73.1,70.0,29.89,WNW,289,6.0,12.0,90,0.00,,,0.00,weatherlink.com 1.10,2013-08-31 14:57:00,
2013-08-31 11:12:00,73.1,70.0,29.89,WSW,253,6.0,14.0,90,0.00,,,0.00,weatherlink.com 1.10,2013-08-31 15:12:00,
2013-08-31 11:27:00,73.9,71.0,29.89,SW,227,9.0,11.0,89,0.00,,,0.00,weatherlink.com 1.10,2013-08-31 15:27:00,
2013-08-31 11:42:00,75.3,71.0,29.89,WSW,243,12.0,17.0,87,0.00,,,0.00,weatherlink.com 1.10,2013-08-31 15:42:00,
2013-08-31 11:57:00,75.1,71.0,29.89,SSW,210,6.0,15.0,86,0.00,,,0.00,weatherlink.com 1.10,2013-08-31 15:57:00,
2013-08-31 12:12:00,74.7,71.0,29.88,SW,223,7.0,15.0,87,0.00,,,0.00,weatherlink.com 1.10,2013-08-31 16:12:00,
2013-08-31 12:27:00,75.4,71.0,29.88,WSW,240,9.0,14.0,87,0.00,,,0.00,weatherlink.com 1.10,2013-08-31 16:27:00,
2013-08-31 12:42:00,77.2,73.0,29.88,SW,229,9.0,13.0,86,0.00,,,0.00,weatherlink.com 1.10,2013-08-31 16:42:00,
2013-08-31 12:57:00,77.6,72.0,29.88,SW,217,11.0,16.0,83,0.00,,,0.00,weatherlink.com 1.10,2013-08-31 16:57:00,
2013-08-31 13:12:00,78.2,73.0,29.88,WSW,244,11.0,16.0,84,0.00,,,0.00,weatherlink.com 1.10,2013-08-31 17:12:00,
2013-08-31 13:27:00,77.9,72.0,29.88,SSW,192,13.0,14.0,83,0.00,,,0.00,weatherlink.com 1.10,2013-08-31 17:27:00,
2013-08-31 13:42:00,77.9,72.0,29.87,WSW,238,9.0,16.0,83,0.00,,,0.00,weatherlink.com 1.10,2013-08-31 17:42:00,
2013-08-31 13:57:00,77.7,73.0,29.87,SW,235,9.0,14.0,85,0.00,,,0.00,weatherlink.com 1.10,2013-08-31 17:57:00,
2013-08-31 14:13:00,78.3,73.0,29.87,SSW,192,9.0,15.0,84,0.00,,,0.00,weatherlink.com 1.10,2013-08-31 18:13:00,
2013-08-31 14:28:00,78.0,73.0,29.87,SW,218,10.0,16.0,84,0.00,,,0.00,weatherlink.com 1.10,2013-08-31 18:28:00,
2013-08-31 14:43:00,77.2,72.0,29.87,SW,217,10.0,15.0,84,0.00,,,0.00,weatherlink.com 1.10,2013-08-31 18:43:00,
2013-08-31 14:58:00,75.8,72.0,29.86,SSW,211,4.0,13.0,87,0.00,,,0.00,weatherlink.com 1.10,2013-08-31 18:58:00,
2013-08-31 15:13:00,76.1,72.0,29.86,WSW,247,7.0,13.0,86,0.00,,,0.00,weatherlink.com 1.10,2013-08-31 19:13:00,
2013-08-31 15:28:00,75.7,72.0,29.87,SSW,199,7.0,12.0,87,0.00,,,0.00,weatherlink.com 1.10,2013-08-31 19:28:00,
2013-08-31 15:43:00,76.2,73.0,29.86,SSW,213,5.0,12.0,88,0.00,,,0.00,weatherlink.com 1.10,2013-08-31 19:43:00,